﻿STRMGAGEID,DATE_TIME,AVG_TEMP,STDDEV_TEMP,MIN_TEMP,MAX_TEMP,N_TEMP,AVG_COND,STDDEV_COND,MIN_COND,MAX_COND,N_COND
harnish_f11,12/25/96,0.9,0.3,0.7,1.4,5,197.8,37.6,169.1,262,5
harnish_f11,12/26/96,3.1,2.6,0,7.9,96,188.3,20.7,144.7,205.5,73
harnish_f11,12/27/96,2.7,2,0.4,7.9,96,173.1,6.7,161,193,96
harnish_f11,12/28/96,0.5,0.5,0,1.6,96,190.9,8.2,174,213.8,86
harnish_f11,12/29/96,3.5,3,0,8.8,96,182.9,8.2,158.1,196,96
harnish_f11,12/30/96,4.2,3,0,9.1,96,187.2,14.2,158.1,201.3,96
harnish_f11,12/31/96,4.1,2.9,0,8.9,96,189.2,19.4,153.5,213.9,96
harnish_f11,1/1/97,4.5,2.2,1.2,8.1,96,172.3,20.1,147.2,237.6,96
harnish_f11,1/2/97,3.6,1.5,1.6,7.4,96,197.5,8.2,184.2,214.7,96
harnish_f11,1/3/97,3.3,2.9,0,8.3,96,215.3,8.8,198.2,229.4,96
harnish_f11,1/4/97,5,2.8,0.7,8.9,96,176.4,26.4,103.4,238.3,96
harnish_f11,1/5/97,4.5,3.2,0,8.5,96,128.7,21,110.2,177.3,96
harnish_f11,1/6/97,4.9,3.1,0,9.2,96,133.4,16.6,115.4,171.2,96
harnish_f11,1/7/97,4.1,3.2,0,10.2,96,129.9,12.1,105.3,175.2,91
harnish_f11,1/8/97,0.2,0.2,0,1.2,96,,,,,0
harnish_f11,1/9/97,0.1,0,0,0.1,69,,,,,0
harnish_f11,1/10/97,0.1,0,0,0.1,96,,,,,0
harnish_f11,1/11/97,1.5,2.2,0,7,96,,,,,0
harnish_f11,1/12/97,0,0.1,0,0.3,96,,,,,0
harnish_f11,1/13/97,2.4,2.1,0,7,75,,,,,0
harnish_f11,1/14/97,4.1,3,0,8.8,96,,,,,0
harnish_f11,1/15/97,4.4,2.9,0.5,9.9,96,,,,,0
harnish_f11,1/16/97,4.2,3,0.5,9.9,96,,,,,0
harnish_f11,1/17/97,4,3.4,0,9.3,96,,,,,0
harnish_f11,1/18/97,4.1,3.4,0,9.2,96,,,,,0
harnish_f11,1/19/97,2.4,2.1,0,7.4,96,,,,,0
harnish_f11,1/20/97,3.1,2.4,0,7.3,96,,,,,0
harnish_f11,1/21/97,2.1,2.3,0,7.2,96,,,,,0
harnish_f11,1/22/97,0.3,0.3,0,1.2,39,,,,,0
harnish_f11,12/4/97,0,0,0,0.1,26,5.4,5.1,0,13,26
harnish_f11,12/5/97,0,0,-0.1,0.1,96,18.2,29.5,0,78.2,96
harnish_f11,12/6/97,0.2,0.2,-0.1,0.7,96,48.1,41.5,0,124.3,96
harnish_f11,12/7/97,0,0,-0.1,0,96,1,3,0,13.1,96
harnish_f11,12/8/97,0,0,0,0.1,96,0,0,0,0,96
harnish_f11,12/9/97,0.1,0.5,-0.7,1.7,96,21.5,30.6,0,85.1,96
harnish_f11,12/10/97,0.6,0.7,-0.1,2.9,96,40.1,37.7,0,126.6,96
harnish_f11,12/11/97,0.1,0.1,-0.1,0.5,96,5.1,11.9,0,41.7,96
harnish_f11,12/12/97,0.2,0.3,-0.1,0.9,96,12,20.4,0,53.3,96
harnish_f11,12/13/97,0.4,0.5,0,1.6,96,30.5,33.6,0,77.1,96
harnish_f11,12/14/97,0.7,0.7,0,2.9,96,62.3,17.1,38.2,82.4,96
harnish_f11,12/15/97,1.4,1.6,0.1,7.3,96,44.5,7.4,30.3,52.4,96
harnish_f11,12/16/97,1.2,1,-0.1,3.3,96,28.2,11,4.6,44.2,96
harnish_f11,12/17/97,1.6,1.8,0.2,8,96,45.8,7.2,35.3,59.1,96
harnish_f11,12/18/97,1.8,1.5,0,5.2,96,44.8,7.4,35.4,58.7,96
harnish_f11,12/19/97,0.8,0.9,0,2.9,96,43.8,11.9,20.4,55,96
harnish_f11,12/20/97,1.9,1.7,0,5.2,96,33.6,18.2,0,57.8,96
harnish_f11,12/21/97,2,1.8,0,6,96,36.2,10.1,6.6,50.3,96
harnish_f11,12/22/97,2.7,2,0,5.7,96,35.6,4.4,30.8,46.1,96
harnish_f11,12/23/97,3.3,2.1,0,6,96,38.6,3.8,30.1,44.9,96
harnish_f11,12/24/97,4.3,2.4,0,7.3,96,36.9,2.6,30,39.7,96
harnish_f11,12/25/97,3.1,1.5,0.9,6.9,96,36.2,3.3,30,41.1,96
harnish_f11,12/26/97,4.9,3,0.4,8.4,96,38.9,3.6,30.7,43.9,96
harnish_f11,12/27/97,5.3,2.5,0.6,9,96,39.2,3.2,32.7,44.1,96
harnish_f11,12/28/97,4.3,1.7,1.9,7.3,96,40.3,3.9,32.3,44.3,96
harnish_f11,12/29/97,4.5,2.1,1.1,7.3,96,74,15.8,35.3,88,96
harnish_f11,12/30/97,3.9,2.8,1.1,10.1,96,84.7,3.9,77.5,90.7,96
harnish_f11,12/31/97,0.7,0.3,0.1,1.2,96,85.6,3.3,80.5,94,96
harnish_f11,1/1/98,1.1,1.4,0,4.7,96,94.9,8.7,84.9,115.4,96
harnish_f11,1/2/98,4.9,3.1,0.7,10.6,96,84.6,4.1,78.4,90,96
harnish_f11,1/3/98,1.3,0.5,0.6,2.3,96,85.8,1.8,81.1,90.5,96
harnish_f11,1/4/98,3.4,2.2,0.6,7.8,96,87.5,3.1,80.4,93.6,96
harnish_f11,1/5/98,4.2,2.7,0,9.2,96,90.6,4,84.7,100.1,96
harnish_f11,1/6/98,4.6,3.1,0,9.3,96,87.8,2.9,84.1,93.6,96
harnish_f11,1/7/98,4.1,2.8,0.2,9.3,96,87.4,1.6,84.3,90.1,96
harnish_f11,1/8/98,3.6,3.1,0,9.9,96,91.6,6.3,82.6,106.9,96
harnish_f11,1/9/98,2.9,2,0.6,5.9,96,91,0.7,89.2,92.4,96
harnish_f11,1/10/98,2.6,1.9,0.5,6.2,96,88.8,5.9,75.7,96.8,96
harnish_f11,1/11/98,3.6,2.5,0.3,8.1,96,95.5,5.4,86.7,107.3,96
harnish_f11,1/12/98,3.4,3,0,8.7,96,96.1,10.4,67.8,116.9,96
harnish_f11,1/13/98,4,3,0,10,96,105,9.9,93.8,126.3,96
harnish_f11,1/14/98,2.5,1.8,0.5,7.7,96,101.7,1.8,97.4,106.4,96
harnish_f11,1/15/98,1.9,2.2,0,6.8,96,107.4,6.3,90.8,124.3,96
harnish_f11,1/16/98,2.5,2.4,0,7.1,96,91.4,20,63.1,115.8,96
harnish_f11,1/17/98,1.8,1.7,0,5.6,96,59.7,34.8,0,89.2,96
harnish_f11,1/18/98,2.2,2.2,0,6.6,96,64.3,32.8,0,96.5,96
harnish_f11,1/19/98,2.4,2.3,0,6.6,96,49.4,26.5,0,71.8,96
harnish_f11,1/20/98,2,2.3,0,6.9,96,41.2,33.4,0,83.3,96
harnish_f11,1/21/98,2.3,2.6,-0.1,8,96,44.7,32,0,74.8,96
harnish_f11,1/22/98,2.2,2.2,-0.1,7.2,96,51.7,28.1,0,74,96
harnish_f11,1/23/98,2.6,2.5,0,7.2,96,43.9,29.9,0,68,96
harnish_f11,1/24/98,1.8,1.9,0,6.6,96,45.4,27.5,0,68.2,96
harnish_f11,1/25/98,0.1,0.1,-0.1,0.4,96,4.6,8.7,0,33.7,96
harnish_f11,1/26/98,0,0,0,0.2,49,0,0,0,0,49
harnish_f11,12/18/98,0.5,0.3,0,1,62,27.4,13.9,0,53.5,62
harnish_f11,12/19/98,0.6,0.6,-0.4,1.6,96,39.1,18.4,16.6,73.4,96
harnish_f11,12/20/98,1.4,1.3,-0.4,4.1,96,47,10.9,28.2,68.5,96
harnish_f11,12/21/98,2,2,-0.1,5.3,96,59.6,14.9,35.1,87,96
harnish_f11,12/22/98,2.1,2.1,0,5.5,96,82,9.4,67.9,100.9,96
harnish_f11,12/23/98,1.9,1.7,-0.1,5.3,96,87,8.7,72.1,100.1,96
harnish_f11,12/24/98,2.3,2.1,0,5.8,96,81.8,6.9,67.7,90.4,96
harnish_f11,12/25/98,3.3,2.7,0,8.3,96,75.9,6.8,61.2,85.2,96
harnish_f11,12/26/98,3.5,2.8,-0.1,7.8,96,71.3,8.7,57.2,85.7,96
harnish_f11,12/27/98,2.9,2.8,-0.1,8.4,96,68.6,5.2,58.4,76.4,96
harnish_f11,12/28/98,3.2,3,-0.1,8.5,96,72.9,5.2,61.3,78.7,96
harnish_f11,12/29/98,3.7,3,-0.1,8.5,96,70.8,4.5,60.4,76.4,96
harnish_f11,12/30/98,4.4,3.6,-0.1,10.4,96,72.8,5.1,60.5,82.1,96
harnish_f11,12/31/98,3.9,3,0,8.5,96,70.1,5,61.7,84.6,96
harnish_f11,1/1/99,1.5,1.4,0.1,4.5,96,70.7,4,61.7,82.9,96
harnish_f11,1/2/99,3.8,3.1,0.1,9.1,96,80.8,3.1,75.2,85.8,96
harnish_f11,1/3/99,1.7,1.8,-0.2,6.3,96,82,4.6,73,86.9,96
harnish_f11,1/4/99,3.6,2.5,0.1,7.3,96,79.5,2.5,73.5,82.8,96
harnish_f11,1/5/99,4.3,2.2,1.2,8.5,96,77.3,3.2,73.1,82.3,96
harnish_f11,1/6/99,3,2.2,0.1,6.5,96,73.6,1.1,71.3,75,96
harnish_f11,1/7/99,1.7,1.4,0.1,4.4,96,78,1.7,74.9,81.3,96
harnish_f11,1/8/99,2.8,2.7,0.2,7.7,96,88.1,4,81.4,92.1,96
harnish_f11,1/9/99,4.6,3.4,0,9.7,96,93.1,2.7,85.1,99.7,96
harnish_f11,1/10/99,3.4,3,0.2,9.3,96,85.5,2.8,79.9,92.2,96
harnish_f11,1/11/99,2.1,2.4,0,7.9,96,92.6,6.6,80.2,103,96
harnish_f11,1/12/99,3.3,2.8,0,8.4,96,100.4,11.1,89,127.3,96
harnish_f11,1/13/99,2.9,2.4,0.1,7.3,96,91.7,2.3,88.6,98.3,96
harnish_f11,1/14/99,3.6,3,0,8.9,96,97.1,8.3,88.7,125.2,96
harnish_f11,1/15/99,2.8,2.4,0.1,7.5,96,103.8,3,94.7,109.4,96
harnish_f11,1/16/99,1.8,1.7,0.2,6.7,96,100.1,2.1,97.7,108.6,96
harnish_f11,1/17/99,0.8,1,-0.1,3.1,96,117.3,12.7,103.6,139.9,96
harnish_f11,1/18/99,2.6,2.5,-0.4,7.8,96,104,13,70.9,129.4,96
harnish_f11,1/19/99,3.5,2.8,-0.4,8.5,96,104.1,2.1,101,108.8,96
harnish_f11,1/20/99,1.7,1.9,-0.5,6,96,113.5,11,103.4,134.6,96
harnish_f11,1/21/99,4.5,3.4,0,9.8,96,107.8,5.8,102.2,122.8,96
harnish_f11,1/22/99,4.4,3.1,0.1,11,96,98,4.1,93.1,106.1,96
harnish_f11,1/23/99,4.5,2.7,0.3,10.6,96,87.6,2.5,84.9,96.4,96
harnish_f11,1/24/99,4.8,3.3,0,9.4,96,82,1.7,77.2,85.6,96
harnish_f11,1/25/99,3.4,2.9,0,8,96,78.8,1.5,75.3,80.6,96
harnish_f11,1/26/99,3.8,3.1,0,9.4,96,81.9,1.5,79.7,85.3,96
harnish_f11,1/27/99,3.6,3.2,0,8.8,96,87.7,1.3,85.3,89.4,96
harnish_f11,1/28/99,3,2.8,0,9.9,96,80.3,1.3,78,85.3,96
harnish_f11,1/29/99,1.7,2,0,6.5,96,84.2,2.2,81,87.4,96
harnish_f11,1/30/99,2,2.3,0,7.4,96,82.3,1.1,80.5,83.8,96
harnish_f11,1/31/99,2,2.5,0,8.9,96,76.7,7.7,67.2,84.1,96
harnish_f11,2/1/99,2.3,2.7,0.1,8.2,96,71,1,69,72.7,96
harnish_f11,2/2/99,1.3,1.5,0,5.5,96,74.1,0.8,72.3,76,96
harnish_f11,2/3/99,1.4,1.6,0.1,4.9,96,76.3,0.9,74.4,77.6,96
harnish_f11,2/4/99,1.3,1.8,-0.2,5.4,96,77.2,5.8,62.4,88.9,96
harnish_f11,2/5/99,0.5,0.6,-0.2,2,96,81.5,2.9,77.6,85.3,96
harnish_f11,2/6/99,0.4,1.2,-1.8,2.8,96,59.6,31.8,0,82.1,96
harnish_f11,2/7/99,0.2,0.9,-1.6,2.2,96,56.3,32.6,0,86,96
harnish_f11,2/8/99,-0.3,1.2,-2.7,1.8,96,31.1,36.4,0,86.1,96
harnish_f11,2/9/99,0.3,1.2,-1.5,2.6,96,49.2,33.4,0,81.2,96
harnish_f11,2/10/99,0.4,0.9,-0.9,2.9,96,53.5,32.5,0,82.9,96
harnish_f11,2/11/99,1.3,1.7,0,4.9,96,80.5,3,73.7,85.6,96
harnish_f11,2/12/99,0.4,1.2,-0.9,3.4,96,42.3,31.4,0,79.9,96
harnish_f11,2/13/99,-0.4,0.8,-1.8,0.9,96,16,21.6,0,57.8,96
harnish_f11,2/14/99,-1.2,1.5,-3.1,1.3,96,9.3,16.5,0,41.2,96
harnish_f11,2/15/99,-1.4,1.8,-3.7,2.2,96,11.5,16.6,0,36.4,96
harnish_f11,2/16/99,-1.9,1.9,-4.9,1.9,96,10,14.7,0,35.7,96
harnish_f11,2/17/99,-3.2,1.2,-5,-1.1,96,0,0,0,0,96
harnish_f11,2/18/99,-3,1.8,-5.2,0.6,77,1.6,5.2,0,23.6,77
harnish_f11,12/10/99,0.5,0.5,-0.3,1.3,46,65.8,20.3,0,76.7,46
harnish_f11,12/11/99,-0.7,0.5,-1.8,0,96,14.4,28.6,0,77.3,96
harnish_f11,12/12/99,-2.5,0.3,-3.1,-1.9,96,0,0,0,0,96
harnish_f11,12/13/99,-1.2,1.4,-3.1,0.6,96,26.3,33.5,0,74.7,96
harnish_f11,12/14/99,-0.3,0.6,-1.6,0.6,96,36.8,35.6,0,77.8,96
harnish_f11,12/15/99,0.5,0.9,-0.7,2.3,96,46.6,30.1,0,80,96
harnish_f11,12/16/99,1,1.2,-0.3,3,96,43.7,21.9,0,63.9,96
harnish_f11,12/17/99,1.3,1.5,-0.5,3.8,96,35,21.1,0,54.8,96
harnish_f11,12/18/99,1.4,1.7,-0.6,4.2,96,39.8,23.2,0,58.7,96
harnish_f11,12/19/99,2.3,2.5,-0.9,6.9,96,42.4,22,0,58,96
harnish_f11,12/20/99,2.3,2.6,-0.3,7.7,96,40.1,20.3,0,55.4,96
harnish_f11,12/21/99,1.8,2.3,-1.1,7.2,96,41,23.2,0,58.3,96
harnish_f11,12/22/99,2.9,2.9,-0.3,9.9,96,31.8,19.6,0,49.5,96
harnish_f11,12/23/99,3.8,3.4,-0.8,9.3,96,35.2,17.6,0,49.6,96
harnish_f11,12/24/99,3.6,3.3,-0.7,9.3,96,36,13.6,0,45.2,96
harnish_f11,12/25/99,3.5,3.3,-0.3,8.8,96,39.2,6.5,18.8,46,96
harnish_f11,12/26/99,0.9,0.9,-0.3,2.7,96,37.7,9.9,0,44.4,96
harnish_f11,12/27/99,1.8,1.7,-0.6,4.4,96,27,16.7,0,49.2,96
harnish_f11,12/28/99,2.3,2.2,-0.8,6.7,96,20.6,10.2,0,32.7,96
harnish_f11,12/29/99,3.2,3.5,-0.8,11.2,96,17.4,16,0,48,96
harnish_f11,12/30/99,2.3,2.3,-0.4,8.2,96,31,7,13.2,42.4,96
harnish_f11,12/31/99,2.5,2.5,-0.6,7.1,96,12.7,7.9,0,25,96
harnish_f11,1/1/00,2.6,2.8,-1.1,9.4,96,4.3,3,0,9.6,96
harnish_f11,1/2/00,4.5,3.2,-0.7,10.2,96,19.7,23.5,0,48.5,96
harnish_f11,1/3/00,3.1,2.2,0.2,7.1,96,45.1,1.7,41.2,47.7,96
harnish_f11,1/4/00,3.2,2.9,0.1,8.2,96,43.8,1.4,41.2,46,96
harnish_f11,1/5/00,2.3,1.8,0.3,7.7,96,45.5,1.7,43.5,48.5,96
harnish_f11,1/6/00,3.8,3,-0.1,8.2,96,49.1,2.3,43.5,52.3,96
harnish_f11,1/7/00,1.8,1.4,0.2,4.8,96,46.2,2.8,42.6,50.2,96
harnish_f11,1/8/00,2.4,2.5,0.1,7.3,96,52,1.2,50.2,54.2,96
harnish_f11,1/9/00,3.5,3.2,-0.7,9.8,96,37.1,19.4,0,55.2,96
harnish_f11,1/10/00,3.7,3.2,-0.7,9,96,45.2,13.9,0,53,96
harnish_f11,1/11/00,3.2,2.7,0,8,96,49.4,1.8,46.3,51.5,96
harnish_f11,1/12/00,2.5,2.4,-0.6,6.7,96,44.6,16.9,0,55.8,96
harnish_f11,1/13/00,2.9,3.1,-0.8,8.5,96,43.7,22.6,0,58.2,96
harnish_f11,1/14/00,3.6,3.3,-1.1,9.4,96,46.1,21.4,0,59.1,96
harnish_f11,1/15/00,3.6,2.8,-0.1,8.4,96,54,0.9,53.1,56.2,96
harnish_f11,1/16/00,2.5,2.3,0,7.5,96,53.5,0.4,52.2,54.4,96
harnish_f11,1/17/00,1.3,2.3,-1.4,6.3,96,31.9,24,0,53.5,96
harnish_f11,1/18/00,-0.5,1.6,-2.7,3.6,96,19,22,0,49.9,96
harnish_f11,1/19/00,1.5,2.6,-2.6,7.9,96,34.6,22.6,0,57.7,96
harnish_f11,1/20/00,1.3,1.5,-1.1,4.4,96,22.1,13.6,0,46.5,96
harnish_f11,1/21/00,2.2,2.4,-0.5,7.5,96,17.7,5.1,8.1,24.2,96
harnish_f11,1/22/00,1.8,2.1,-1.3,5.5,96,3.7,2.7,0,8,96
harnish_f11,1/23/00,0.9,1.9,-0.7,6,96,0,0,0,0,96
harnish_f11,1/24/00,2.3,2.5,-0.9,6.7,96,8.9,19.4,0,52.7,96
harnish_f11,1/25/00,1,1.9,-1.4,4.8,96,33.2,22.8,0,53.3,96
harnish_f11,1/26/00,1,2.2,-1.5,6.7,96,23.6,16.3,0,39.2,96
harnish_f11,1/27/00,0.8,1.9,-2.1,4.6,96,21.2,6.2,11.8,30.4,96
harnish_f11,1/28/00,0.5,1.6,-1.4,4.6,96,6.3,4.3,0,11.7,96
harnish_f11,1/29/00,0.1,1.9,-2.8,3.8,77,0.5,0.7,0,1.7,77
harnish_f11,11/1/00,-21,0.2,-21.3,-20.7,96,,,,,0
harnish_f11,11/2/00,-20.6,0.2,-20.8,-20.1,96,,,,,0
harnish_f11,11/3/00,-19.8,0.3,-20.1,-19,96,,,,,0
harnish_f11,11/4/00,-18.4,0.3,-19,-17.8,96,,,,,0
harnish_f11,11/5/00,-17.3,0.4,-17.8,-16.6,96,,,,,0
harnish_f11,11/6/00,-16,0.3,-16.5,-15.6,96,,,,,0
harnish_f11,11/7/00,-15.7,0.1,-15.9,-15.6,96,,,,,0
harnish_f11,11/8/00,-16,0.2,-16.2,-15.7,96,,,,,0
harnish_f11,11/9/00,-16.1,0.2,-16.3,-15.7,96,,,,,0
harnish_f11,11/10/00,-15.5,0.2,-15.7,-14.9,96,,,,,0
harnish_f11,11/11/00,-14.6,0.4,-14.9,-13.8,96,,,,,0
harnish_f11,11/12/00,-13.8,0.1,-14,-13.5,96,,,,,0
harnish_f11,11/13/00,-13.4,0.3,-13.7,-12.9,96,,,,,0
harnish_f11,11/14/00,-13.3,0.2,-13.5,-12.9,96,,,,,0
harnish_f11,11/15/00,-13.4,0.3,-13.7,-12.8,96,,,,,0
harnish_f11,11/16/00,-12.9,0.2,-13.1,-12.5,96,,,,,0
harnish_f11,11/17/00,-12.6,0.2,-12.8,-12.2,96,,,,,0
harnish_f11,11/18/00,-12.4,0.3,-12.8,-11.8,89,,,,,0
harnish_f11,11/19/00,-11.8,0,-11.8,-11.8,6,,,,,0
harnish_f11,11/20/00,-12.4,0.4,-13,-11.8,96,,,,,0
harnish_f11,11/21/00,-12.3,0.3,-12.7,-11.8,96,,,,,0
harnish_f11,11/22/00,-12,0.4,-12.4,-11.2,96,,,,,0
harnish_f11,11/23/00,-11,0.3,-11.4,-10.5,96,,,,,0
harnish_f11,11/24/00,-10.3,0.2,-10.5,-9.8,96,,,,,0
harnish_f11,11/25/00,-9.7,0.2,-9.9,-9.3,96,,,,,0
harnish_f11,11/26/00,-9.5,0.1,-9.6,-9.3,96,,,,,0
harnish_f11,11/27/00,-9.3,0.5,-9.8,-8.2,96,,,,,0
harnish_f11,11/28/00,-8.4,0.2,-8.6,-8.1,96,,,,,0
harnish_f11,11/29/00,-6.1,2.7,-8.4,-1.5,96,,,,,0
harnish_f11,11/30/00,-3,1.9,-5.7,-0.2,96,,,,,0
harnish_f11,12/1/00,-4.7,1,-5.5,-2,96,,,,,0
harnish_f11,12/2/00,-5,1.5,-6.7,-2.9,96,,,,,0
harnish_f11,12/3/00,-3.4,1.2,-5,-1.7,96,,,,,0
harnish_f11,12/4/00,-3.8,0.8,-5.1,-2.8,96,,,,,0
harnish_f11,12/5/00,-3.9,0.4,-4.6,-3.4,96,,,,,0
harnish_f11,12/6/00,-3.6,1.1,-5.1,-2,96,,,,,0
harnish_f11,12/7/00,-2.3,1.6,-4.7,-0.1,96,,,,,0
harnish_f11,12/8/00,-1.6,1.4,-3.9,0,96,,,,,0
harnish_f11,12/9/00,-1,1.4,-3.4,0.4,96,37.3,18.9,2,59,34
harnish_f11,12/10/00,0.3,0.9,-1.5,2.4,96,14.2,7.7,2,27,66
harnish_f11,12/11/00,0.3,2.3,-2.8,4.8,96,16.2,4.6,2,20,35
harnish_f11,12/12/00,1.1,2.6,-2.2,6.5,96,20.6,5.3,2,24,56
harnish_f11,12/13/00,1.7,2.4,-1.5,5.9,96,22.1,5,1,26,66
harnish_f11,12/14/00,2.3,3.1,-2,7.7,96,22.4,3.1,7,25,67
harnish_f11,12/15/00,2.7,3.1,-1.7,8.8,96,14.8,2.4,2,18,70
harnish_f11,12/16/00,2.3,2.5,-0.6,8,96,7.2,2.1,1,12,73
harnish_f11,12/17/00,2.8,2.8,-1.4,8.6,96,2.8,0.9,1,4,66
harnish_f11,12/18/00,3.5,2.9,-0.1,9.4,96,1.5,0.5,1,2,13
harnish_f11,12/19/00,3.4,2.7,-0.2,9.6,96,,,,,0
harnish_f11,12/20/00,3.8,3.4,-0.3,10.1,96,,,,,0
harnish_f11,12/21/00,2.5,2.9,-1.6,8.2,96,2,0.8,1,3,42
harnish_f11,12/22/00,2.9,3,-1.4,8.8,96,3.8,1.1,1,5,71
harnish_f11,12/23/00,0.8,1.7,-1,5,96,4.7,0.9,2,6,47
harnish_f11,12/24/00,-0.3,0.6,-1.6,0.6,96,51.6,10.8,6,57,54
harnish_f11,12/25/00,2.1,2.7,-0.9,9.4,96,44.2,10.5,3,49,70
harnish_f11,12/26/00,4.1,3.3,-0.7,9.2,96,34,8.5,1,47,91
harnish_f11,12/27/00,2.1,2.2,-0.8,6.3,96,26.5,6,2,31,83
harnish_f11,12/28/00,2.3,2.6,-0.8,8,96,20.3,3.9,2,23,67
harnish_f11,12/29/00,3.2,3.2,-2.4,8.2,96,10.8,2.8,3,14,72
harnish_f11,12/30/00,4.5,3.8,-1.4,10.3,96,3.4,1.3,0,6,60
harnish_f11,12/31/00,-0.1,0.8,-1.5,1.3,96,,,,,0
harnish_f11,1/1/01,4.2,3.6,-1,10.3,96,,,,,0
harnish_f11,1/2/01,0.7,2.1,-1.8,6.1,96,,,,,0
harnish_f11,1/3/01,-0.9,1,-2.2,1.1,96,,,,,0
harnish_f11,1/4/01,0.7,2.4,-2.4,5.4,96,,,,,0
harnish_f11,1/5/01,3,3.5,-2.3,9.2,96,,,,,0
harnish_f11,1/6/01,3.6,3.1,-1.1,8.5,96,,,,,0
harnish_f11,1/7/01,1.2,2.1,-2,6.3,96,,,,,0
harnish_f11,1/8/01,-2.2,0.6,-3.1,-1.2,96,,,,,0
harnish_f11,1/9/01,-0.4,1.2,-2.3,1.3,95,,,,,0
harnish_f11,1/10/01,0.1,0.9,-1.1,2.1,14,,,,,0
harnish_f11,1/11/01,-1.2,0.7,-2.4,0.1,96,,,,,0
harnish_f11,1/12/01,1.1,2.9,-2.7,7.8,96,,,,,0
harnish_f11,1/13/01,1.7,2.8,-2.3,6.2,96,,,,,0
harnish_f11,1/14/01,2.5,3,-1.8,8.7,96,,,,,0
harnish_f11,1/15/01,0.9,1.6,-1.5,4.2,96,,,,,0
harnish_f11,1/16/01,1.4,2.8,-3.5,5.5,96,,,,,0
harnish_f11,1/17/01,2.2,3.1,-2.3,8.1,96,,,,,0
harnish_f11,1/18/01,3,3.1,-1.8,8.6,96,,,,,0
harnish_f11,1/19/01,2.7,2.4,-0.5,8,96,,,,,0
harnish_f11,1/20/01,1.2,2.1,-1.9,5.7,96,,,,,0
harnish_f11,1/21/01,-1.1,0.8,-2.6,0.2,96,,,,,0
harnish_f11,1/22/01,1.4,2.7,-3.1,6.1,96,,,,,0
harnish_f11,1/23/01,0.4,2,-2.8,4.1,96,,,,,0
harnish_f11,1/24/01,1.1,3.2,-3.9,7,96,,,,,0
harnish_f11,1/25/01,1.5,2.5,-2,6.7,96,,,,,0
harnish_f11,1/26/01,1.5,2.9,-2.9,6.5,96,,,,,0
harnish_f11,1/27/01,1.5,2.9,-2.8,6.5,96,,,,,0
harnish_f11,1/28/01,0.8,2.7,-3.5,5,96,,,,,0
harnish_f11,1/29/01,0.6,2.5,-3.2,5.2,96,,,,,0
harnish_f11,1/30/01,0.6,2.4,-3.3,4.2,96,,,,,0
harnish_f11,1/31/01,0.4,2.5,-3.6,4.8,96,,,,,0
harnish_f11,2/1/01,-0.4,2,-4.2,3.3,96,,,,,0
harnish_f11,2/2/01,-0.3,1.2,-1.9,3.1,96,,,,,0
harnish_f11,2/3/01,0.9,2.5,-2.4,5.7,96,,,,,0
harnish_f11,2/4/01,-0.3,2,-3.1,4.6,96,,,,,0
harnish_f11,2/5/01,0.5,2.1,-2.2,3.8,96,,,,,0
harnish_f11,2/6/01,0.2,2.6,-4,5.2,96,,,,,0
harnish_f11,2/7/01,1.9,2.9,-1.7,8.3,96,,,,,0
harnish_f11,2/8/01,-1.5,1.6,-4.1,2.2,96,,,,,0
harnish_f11,2/9/01,-1.9,2.4,-6,2.4,96,,,,,0
harnish_f11,2/10/01,-1.7,2.6,-6.3,1.9,96,,,,,0
harnish_f11,2/11/01,-1.7,2.7,-6.5,2.2,96,,,,,0
harnish_f11,2/12/01,-2.5,2.4,-6.5,2.1,96,,,,,0
harnish_f11,2/13/01,-1.6,1.7,-4.1,1.2,96,,,,,0
harnish_f11,2/14/01,-2.7,3,-7.7,2.3,96,,,,,0
harnish_f11,2/15/01,-2.2,3.1,-7.1,3.1,96,,,,,0
harnish_f11,2/16/01,-2.3,3.5,-7.6,5.4,96,,,,,0
harnish_f11,2/17/01,-3.9,1.4,-6.1,-1.4,96,,,,,0
harnish_f11,2/18/01,-3.5,3.1,-8.2,1.6,96,,,,,0
harnish_f11,2/19/01,-4.1,1.8,-7.6,-0.5,96,,,,,0
harnish_f11,2/20/01,-4.6,3,-8.6,0.9,96,,,,,0
harnish_f11,2/21/01,-6,3.2,-10.5,0.9,96,,,,,0
harnish_f11,2/22/01,-6.3,2.9,-10.5,-1.4,96,,,,,0
harnish_f11,2/23/01,-5.9,2.2,-9.6,-1.3,96,,,,,0
harnish_f11,2/24/01,-6.6,2,-9.6,-2.8,96,,,,,0
harnish_f11,2/25/01,-6.1,2.9,-9.9,-0.3,96,,,,,0
harnish_f11,2/26/01,-7.2,1.2,-9.4,-4.9,96,,,,,0
harnish_f11,2/27/01,-8.8,2.5,-12.8,-4.3,96,,,,,0
harnish_f11,2/28/01,-10.8,2.4,-14.7,-5.7,96,,,,,0
harnish_f11,12/2/01,-8.7,0,-8.72,-8.6,19,,,,,0
harnish_f11,12/3/01,-8.5,0.2,-8.85,-8.11,96,,,,,0
harnish_f11,12/4/01,-8,0.2,-8.35,-7.61,96,,,,,0
harnish_f11,12/5/01,-7.6,0.2,-7.97,-7.3,96,,,,,0
harnish_f11,12/6/01,-7.3,0.2,-7.59,-6.97,96,,,,,0
harnish_f11,12/7/01,-6.3,0.9,-7.19,-3.32,96,,,,,0
harnish_f11,12/8/01,-5,1.8,-6.6,-0.47,96,,,,,0
harnish_f11,12/9/01,-2.9,0.9,-3.84,-1.09,96,,,,,0
harnish_f11,12/10/01,-2.9,1,-3.86,-0.98,96,,,,,0
harnish_f11,12/11/01,-2.9,1,-4.19,-1.05,96,,,,,0
harnish_f11,12/12/01,-4.5,0.2,-4.93,-4.22,96,,,,,0
harnish_f11,12/13/01,-4.7,0.1,-4.8,-4.47,96,,,,,0
harnish_f11,12/14/01,-4.3,0.2,-4.61,-4.11,96,,,,,0
harnish_f11,12/15/01,-4.3,0.1,-4.41,-4.12,96,,,,,0
harnish_f11,12/16/01,-2.8,1.7,-4.65,-0.68,96,,,,,0
harnish_f11,12/17/01,-0.5,0.2,-0.89,-0.14,96,,,,,0
harnish_f11,12/18/01,0.4,1.2,-0.64,3.02,96,47.2,20.3,29.31,94,35
harnish_f11,12/19/01,1.1,1.3,-0.01,3.81,96,158.9,128.2,24.12,321.9,80
harnish_f11,12/20/01,1.7,1.6,-0.06,4.26,96,148.7,36.6,95.5,307.1,96
harnish_f11,12/21/01,2.3,1.8,0.04,4.93,96,68.9,4.6,61.66,91.39,96
harnish_f11,12/22/01,4.3,3,0.05,8.77,96,68.1,2.4,64.77,72.91,96
harnish_f11,12/23/01,5.4,3.3,0.43,9.87,96,77.9,2.5,72.51,85.06,96
harnish_f11,12/24/01,4,1.4,1.89,6.77,96,75.6,3.4,70.71,82.89,96
harnish_f11,12/25/01,6.5,3.4,0.96,11.28,96,74.8,3.7,69.63,81.7,96
harnish_f11,12/26/01,8.1,3.5,2.45,12.47,96,79.2,3,69.54,84.41,96
harnish_f11,12/27/01,7.9,3.6,1.78,12.46,96,71.2,4.3,63.19,80.1,96
harnish_f11,12/28/01,7.8,4,1.67,13.33,96,85.5,14,55.01,101.6,96
harnish_f11,12/29/01,7,3.3,1.12,11.64,96,59.7,5.2,52.18,68.97,96
harnish_f11,12/30/01,6.4,2.8,1.18,10.24,96,64.3,5.9,52.18,73.85,96
harnish_f11,12/31/01,6.4,2.8,1.18,10.24,96,73.8,7.4,62,84.37,96
harnish_f11,1/1/02,6.1,3.4,0.88,11.94,96,70.2,7.4,60.48,82.01,96
harnish_f11,1/2/02,3.7,3,0.28,10.06,96,77.7,7.9,61.57,88.86,96
harnish_f11,1/3/02,2.3,1.3,0.11,4.51,96,82.4,4,74.75,89.56,96
harnish_f11,1/4/02,6.1,3.6,1.23,10.98,96,85.5,8.1,65.23,91.58,96
harnish_f11,1/5/02,7.2,3.7,1.43,12.96,96,71.9,7,62.86,84.76,96
harnish_f11,1/6/02,6.4,3.5,0.53,11.1,96,77.7,8.1,65.42,91.83,96
harnish_f11,1/7/02,6,3.5,0.54,11.17,96,79.4,8.2,67.45,93.6,96
harnish_f11,1/8/02,1.7,1.1,0.21,4.97,96,87.4,8.7,69.37,99.8,96
harnish_f11,1/9/02,5.4,4.3,-0.01,10.96,96,103.2,5.4,85.08,111.3,96
harnish_f11,1/10/02,5,3.4,0.05,10.96,96,96.3,7.7,82.67,107.8,96
harnish_f11,1/11/02,5.1,3.6,0.03,11.26,96,96.5,5,86.2,105.4,96
harnish_f11,1/12/02,6.6,3.8,0.84,11.68,96,90.6,10.7,69.17,102.1,96
harnish_f11,1/13/02,6.6,3.4,1.11,11.41,96,83,9.2,69.33,98.9,96
harnish_f11,1/14/02,6.3,4.3,0.06,13.49,96,85.7,8.6,72.63,102.6,96
harnish_f11,1/15/02,6.1,3.6,0.74,12.28,96,88.4,10.1,75.78,106.9,96
harnish_f11,1/16/02,6.6,3.8,1.8,12.01,96,95.2,13.7,78.81,124.4,96
harnish_f11,1/17/02,5.7,4,0.07,11.7,96,103.6,17,79.42,135.6,96
harnish_f11,1/18/02,5.5,3.4,0.81,10.11,96,113.7,19.8,87.04,144.5,96
harnish_f11,1/19/02,1.2,1,0.31,4.95,96,130.1,22.8,88.35,158.6,96
harnish_f11,1/20/02,4.3,3.9,-0.01,10.51,96,154.4,27,97.8,181.6,96
harnish_f11,1/21/02,0.1,0.3,-0.02,1.94,96,136.3,21.9,97.8,159.5,96
harnish_f11,1/22/02,2.1,2.5,0.02,7.31,96,142.3,16.5,115.7,160.2,96
harnish_f11,1/23/02,3.9,3.6,-0.01,10.07,96,133.7,11.7,110.5,149.4,96
harnish_f11,1/24/02,0.7,0.7,0,1.87,96,128.2,9.2,109.8,141.5,96
harnish_f11,1/25/02,0.7,0.7,-0.02,2.01,96,139.6,4.1,134.1,147.4,96
harnish_f11,1/26/02,1.7,1.9,-0.01,6.02,96,149.1,3.1,140.8,156.2,96
harnish_f11,1/27/02,1.8,1.8,0.04,5.94,96,155.9,1.6,151.8,158.4,96
harnish_f11,1/28/02,0.8,0.6,0,2.52,96,160.5,1.2,158.5,163.2,96
harnish_f11,1/29/02,1.5,2.1,-0.3,7.1,96,164.5,1.3,161.8,167.8,96
harnish_f11,1/30/02,0.8,1.3,-0.78,3.74,96,168.3,1.6,166.7,172.8,61
harnish_f11,1/31/02,2,1.9,-0.38,5.05,96,162.3,2.2,159.4,166.7,96
harnish_f11,2/1/02,0.3,0.3,-0.04,0.89,96,164.1,1.5,161.7,167.7,96
harnish_f11,2/2/02,0.8,1.3,-0.07,4.04,96,166.6,2.5,162.4,171.8,96
harnish_f11,2/3/02,0.8,1.1,-0.37,3.66,96,151.8,23.3,93.7,168.1,96
harnish_f11,2/4/02,0.9,1.2,-0.15,3.65,96,165.2,7.6,140.1,174.5,96
harnish_f11,2/5/02,0.7,1.4,-0.61,4.03,96,173.2,6.3,151.9,181.8,60
harnish_f11,2/6/02,-0.2,0.6,-2.06,0.67,96,105.1,65.9,23.8,175.9,67
harnish_f11,2/7/02,0.7,1.2,-0.31,3.9,96,141.4,42.2,59.74,175.9,96
harnish_f11,2/8/02,0.3,0.4,-0.12,1.4,96,177.7,3.1,172.9,186.8,96
harnish_f11,2/9/02,0.2,1.2,-1.74,2.47,96,194.6,3,180.8,197.7,50
harnish_f11,2/10/02,-0.1,0.5,-1.4,1.58,96,179.6,7,169.2,194.1,47
harnish_f11,2/11/02,-1.3,0.8,-2.76,0.32,96,,,,,0
harnish_f11,2/12/02,-2.4,0.7,-3.43,-1.03,96,,,,,0
harnish_f11,2/13/02,-2.1,1.3,-3.8,0.04,96,,,,,0
harnish_f11,2/14/02,-3.5,1.6,-7.58,-0.92,96,,,,,0
harnish_f11,2/15/02,-5.1,2.9,-9.17,-0.16,96,,,,,0
harnish_f11,2/16/02,-5.7,2.6,-9.56,-1.48,96,,,,,0
harnish_f11,2/17/02,-3.9,4.7,-10.85,2.72,96,63.5,15.5,24.08,74.87,29
harnish_f11,2/18/02,-1,2.1,-4.06,2.94,96,50.9,9.8,24.32,57.37,33
harnish_f11,2/19/02,-3.1,1.8,-5.95,0.41,96,,,,,0
harnish_f11,2/20/02,-5.2,2.9,-9.59,-0.66,96,,,,,0
harnish_f11,2/21/02,-7,2.5,-11.24,-2.96,96,,,,,0
harnish_f11,2/22/02,-6.9,1.4,-9.02,-4.62,96,,,,,0
harnish_f11,2/23/02,-8.9,2.7,-13.02,-4.06,96,,,,,0
harnish_f11,2/24/02,-8.6,2.3,-12.27,-5.21,96,,,,,0
harnish_f11,2/25/02,-9.2,2,-12.35,-5.43,96,,,,,0
harnish_f11,2/26/02,-10,3.4,-14.83,-4.74,96,,,,,0
harnish_f11,2/27/02,-10.5,2.5,-14.46,-5.68,96,,,,,0
harnish_f11,2/28/02,-9.4,1.5,-11.39,-7.04,96,,,,,0
harnish_f11,1/24/06,2.1,1.4,0.69,4.68,12,,,,,0
harnish_f11,1/25/06,1.2,1.8,-0.13,5.78,96,,,,,0
harnish_f11,1/26/06,1.1,1.5,-0.17,3.95,96,,,,,0
harnish_f11,1/27/06,1.4,1.7,-0.94,4.72,96,,,,,0
harnish_f11,1/28/06,1.1,2,-0.2,5.82,96,,,,,0
harnish_f11,1/29/06,0.6,1.2,-0.51,4.12,96,,,,,0
harnish_f11,1/30/06,1.1,2,-1.58,6.58,96,,,,,0
harnish_f11,1/31/06,0.2,1.2,-1.49,3.94,96,,,,,0
harnish_f11,2/1/06,-0.2,1,-3.51,0.8,96,,,,,0
harnish_f11,2/2/06,-0.5,1,-2.98,0.65,96,,,,,0
harnish_f11,2/3/06,-0.8,1,-3.26,0,96,,,,,0
harnish_f11,2/4/06,-0.3,0.7,-1.74,1.1,96,,,,,0
harnish_f11,2/5/06,-0.7,1,-3.15,0.57,96,,,,,0
harnish_f11,2/6/06,-2.3,1,-3.91,-0.03,96,,,,,0
harnish_f11,2/7/06,-2.6,2.2,-7.66,-0.03,96,,,,,0
harnish_f11,2/8/06,-3.6,1.9,-6.56,-0.09,96,,,,,0
harnish_f11,2/9/06,-4.3,2.1,-8.01,-0.57,96,,,,,0
harnish_f11,2/10/06,-4.5,2.1,-7.76,-0.23,96,,,,,0
harnish_f11,2/11/06,-5.8,2,-8.9,-2.39,96,,,,,0